Location: Gälforsberget
(66.6500°N, 22.4167°E)
Time: 10:44:50
(UTC+00:00)

Cosmos 2058 - Pass Details

Date: 11 April 2026
Orbit: 523 x 538 km, 82.5° (Epoch: 19 May)

Event Time Altitude Azimuth Distance (km) Brightness Sun altitude
Rises 21:34:16 0° 341° (NNW) 2,708 8.3 -14.1°
Reaches altitude 10° 21:36:29 10° 336° (NNW) 1,810 6.8 -14.1°
Maximum altitude 21:40:18 47° 262° (W) 722 3.4 -14.2°
Enters shadow 21:42:35 21° 198° (SSW) 1,225 4.1 -14.3°
